Waarnemingen

Advertentie
Mijn weer
Charleville, Frankrijk (7075): temperatuur & dauwpunt: 15.07.2017 06:00:00 - 21.07.2017 06:00:00 (CEST)Charleville, Frankrijk (7075): temperatuur 5cm: 15.07.2017 06:00:00 - 21.07.2017 06:00:00 (CEST)Charleville, Frankrijk (7075): temperatuur -20cm & temperatuur -100cm: 15.07.2017 06:00:00 - 21.07.2017 06:00:00 (CEST)Charleville, Frankrijk (7075): windsnelheid & windstoten: 15.07.2017 06:00:00 - 21.07.2017 06:00:00 (CEST)Charleville, Frankrijk (7075): windrichting: 15.07.2017 06:00:00 - 21.07.2017 06:00:00 (CEST)Charleville, Frankrijk (7075): luchtdruk: 15.07.2017 06:00:00 - 21.07.2017 06:00:00 (CEST)Charleville, Frankrijk (7075): zicht: 15.07.2017 06:00:00 - 21.07.2017 06:00:00 (CEST)Charleville, Frankrijk (7075): Zonneschijnduur: 15.07.2017 06:00:00 - 21.07.2017 06:00:00 (CEST)Charleville, Frankrijk (7075): neerslag: 15.07.2017 06:00:00 - 21.07.2017 06:00:00 (CEST)
Datum & Tijd tt [°C] td [°C] tt 5cm [°C] tt -20cm [°C] tt -100cm [°C] ff [km/u] ff [kn] fx [km/u] fx [kn] dd ppp [hPa] vv [km] sd [min] rr [mm]
21.07.2017 06:00:00 7,5 7,1 4,6 20,5 17,0 1 1 6 3 ZO 1015,5 0,3 0 0,0
21.07.2017 05:00:00 8,8 8,5 4,9 20,6 17,0 3 2 5 3 W 1015,5 12 0 0,0
21.07.2017 04:00:00 9,8 9,5 5,8 20,8 17,0 3 2 9 5 W 1015,6 14 0 0,0
21.07.2017 03:00:00 10,6 10,1 6,4 20,9 17,0 3 1 4 2 NNW 1015,6 4,8 0 0,0
21.07.2017 02:00:00 12,0 11,1 9,3 21,0 16,9 3 1 5 3 O 1015,6 20 0 0,0
21.07.2017 01:00:00 12,5 11,7 9,5 21,1 16,9 3 1 4 2 N 1015,7 20 0 0,0
21.07.2017 00:00:00 12,1 10,7 8,9 21,2 17,0 1 1 7 4 ZZW 1015,3 20 0 0,0
20.07.2017 23:00:00 13,6 11,5 10,7 21,3 16,9 3 2 10 5 O 1014,6 20 0 0,0
20.07.2017 22:00:00 17,2 11,2 13,6 21,3 16,9 6 3 16 9 W 1014,1 20 0 0,0
20.07.2017 21:00:00 18,9 11,9 17,2 21,4 16,9 12 6 31 17 W 1013,4 20 37 0,0
20.07.2017 20:00:00 20,1 13,3 20,1 21,4 16,9 20 11 41 22 WNW 1012,9 20 51 0,0
20.07.2017 19:00:00 20,8 13,7 21,1 21,3 16,9 23 12 46 25 W 1012,3 20 41 0,0
20.07.2017 18:00:00 21,5 14,4 23,2 21,3 16,9 24 13 42 23 W 1012,2 20 18 0,0
20.07.2017 17:00:00 22,5 14,1 23,6 21,2 16,9 22 12 46 25 WZW 1011,5 20 34 0,0
20.07.2017 16:00:00 21,7 15,5 21,0 21,2 16,9 13 7 48 26 WZW 1011,4 20 6 0,0
20.07.2017 15:00:00 22,8 13,6 23,8 21,1 16,9 16 9 45 25 ZW 1010,8 20 16 0,0
20.07.2017 14:00:00 23,2 13,4 23,6 21,0 16,9 16 8 48 26 ZZW 1010,5 20 22 0,0
20.07.2017 13:00:00 24,0 14,4 23,1 21,0 16,9 17 9 43 23 ZZW 1010,1 20 43 0,0
20.07.2017 12:00:00 22,9 14,7 21,7 21,0 16,9 19 10 42 23 ZW 1010,2 20 19 0,0
20.07.2017 11:00:00 21,3 14,7 22,1 21,1 16,9 17 9 39 21 ZW 1010,6 20 25 0,0
20.07.2017 10:00:00 21,4 15,9 19,2 21,1 16,9 15 8 37 20 ZZW 1010,3 20 38 0,0
20.07.2017 09:00:00 20,2 16,4 20,3 21,2 16,9 14 8 30 16 ZW 1010,2 20 29 0,0
20.07.2017 08:00:00 19,9 17,1 18,4 21,2 16,9 9 5 23 13 ZZW 1009,8 20 31 0,0
20.07.2017 07:00:00 19,0 17,0 17,5 21,3 16,9 5 3 19 11 Z 1010,1 20 5 0,0
20.07.2017 06:00:00 19,5 17,5 18,0 21,3 16,9 6 3 15 8 ZZW 1009,7 20 0 0,0
20.07.2017 05:00:00 19,4 18,2 18,4 21,4 16,9 6 3 13 7 Z 1009,5 16 0 0,0
20.07.2017 04:00:00 19,3 18,1 18,3 21,5 16,9 4 2 12 7 Z 1009,1 15 0 0,0
20.07.2017 03:00:00 19,4 18,4 18,8 21,6 16,9 6 3 24 13 O 1009,0 13 0 2,3
20.07.2017 02:00:00 20,7 17,9 17,7 21,6 16,9 7 4 16 9 W 1009,7 10 0 0,6
20.07.2017 01:00:00 19,4 17,5 17,7 21,6 16,9 4 2 6 4 ZO 1009,4 20 0 0,0
20.07.2017 00:00:00 20,7 17,3 18,9 21,7 16,9 3 1 9 5 ZO 1009,4 20 0 0,0
19.07.2017 23:00:00 24,3 16,6 20,9 21,7 16,9 4 2 20 11 W 1009,0 20 0 0,0
19.07.2017 22:00:00 25,8 16,1 23,2 21,6 16,8 7 4 16 9 WZW 1009,0 20 0 0,0
19.07.2017 21:00:00 27,2 15,2 25,1 21,6 16,8 11 6 30 16 WZW 1008,5 20 0 0,0
19.07.2017 20:00:00 28,7 14,9 27,5 21,5 16,8 10 5 29 16 ZW 1008,0 20 20 0,0
19.07.2017 19:00:00 29,9 16,3 28,8 21,4 16,8 10 5 21 11 ZZW 1007,6 20 24 0,0
19.07.2017 18:00:00 29,5 16,7 29,0 21,3 16,8 14 7 24 13 Z 1007,5 20 56 0,0
19.07.2017 17:00:00 29,7 16,8 28,5 21,2 16,8 10 6 28 15 ZW 1008,5 20 19 0,0
19.07.2017 16:00:00 28,1 17,9 28,7 21,0 16,8 12 7 32 17 ZZO 1009,2 20 20 0,0
19.07.2017 15:00:00 29,2 17,7 30,5 20,9 16,8 15 8 27 15 Z 1009,5 20 43 0,0
19.07.2017 14:00:00 28,1 18,2 25,3 20,8 16,8 5 3 19 10 ZZO 1009,4 20 4 0,0
19.07.2017 13:00:00 26,7 16,6 25,0 20,8 16,8 11 6 24 13 ZW 1010,5 20 7 0,0
19.07.2017 12:00:00 27,4 16,7 30,3 20,7 16,8 9 5 23 12 Z 1009,7 20 33 0,0
19.07.2017 11:00:00 27,5 17,1 29,1 20,7 16,8 3 1 20 11 O 1009,4 20 52 0,0
19.07.2017 10:00:00 25,6 17,8 26,5 20,7 16,8 8 5 19 11 ZZO 1010,6 20 39 0,0
19.07.2017 09:00:00 23,9 17,4 25,6 20,8 16,8 12 7 20 11 OZO 1010,0 20 60 0,0
19.07.2017 08:00:00 22,3 16,8 20,5 20,9 16,8 13 7 19 10 O 1009,8 20 60 0,0
19.07.2017 07:00:00 19,1 16,7 15,3 21,0 16,8 5 3 10 5 ZO 1010,2 19 35 0,0
19.07.2017 06:00:00 18,4 15,5 15,6 21,0 16,8 9 5 16 9 ZZO 1010,2 20 0 0,0
19.07.2017 05:00:00 19,4 16,1 15,2 21,1 16,8 7 4 22 12 Z 1010,3 20 0 0,0
19.07.2017 04:00:00 21,0 16,6 18,9 21,2 16,8 11 6 24 13 OZO 1010,1 20 0 0,0
19.07.2017 03:00:00 21,2 16,6 18,0 21,3 16,8 11 6 19 11 OZO 1010,3 20 0 0,0
19.07.2017 02:00:00 21,3 16,7 15,5 21,3 16,8 9 5 16 9 OZO 1010,6 20 0 0,0
19.07.2017 01:00:00 19,2 16,2 15,1 21,4 16,8 7 4 12 6 ZO 1011,0 20 0 0,0
19.07.2017 00:00:00 19,6 17,0 15,8 21,4 16,8 1 1 5 3 W 1011,1 20 0 0,0
18.07.2017 23:00:00 21,3 17,1 18,5 21,4 16,8 1 1 11 6 OZO 1011,5 20 0 0,0
18.07.2017 22:00:00 25,1 17,3 21,6 21,4 16,8 7 4 20 11 OZO 1010,7 20 1 0,0
18.07.2017 21:00:00 26,2 18,6 24,1 21,3 16,8 7 4 16 9 O 1011,2 20 60 0,0
18.07.2017 20:00:00 28,3 18,7 27,8 21,2 16,8 12 7 27 14 O 1011,6 20 58 0,0
18.07.2017 19:00:00 29,7 18,2 29,1 21,1 16,8 13 7 32 17 O 1011,7 20 54 0,0
18.07.2017 18:00:00 30,0 18,8 30,1 20,9 16,8 13 7 31 17 O 1011,9 20 58 0,0
18.07.2017 17:00:00 30,3 17,7 29,9 20,7 16,8 17 9 34 18 OZO 1012,4 20 45 0,0
18.07.2017 16:00:00 29,8 17,3 31,7 20,5 16,8 20 11 34 18 O 1013,1 20 51 0,0
18.07.2017 15:00:00 30,0 18,4 35,1 20,3 16,8 16 9 33 18 OZO 1013,7 20 60 0,0
18.07.2017 14:00:00 28,9 18,4 34,2 20,2 16,8 17 9 30 16 O 1014,5 20 60 0,0
18.07.2017 13:00:00 28,2 18,6 33,6 20,1 16,8 14 8 25 13 OZO 1015,1 20 60 0,0
18.07.2017 12:00:00 26,8 18,4 32,6 20,0 16,8 11 6 21 12 ZO 1016,0 20 60 0,0
18.07.2017 11:00:00 25,4 18,8 26,8 20,0 16,8 14 8 29 15 ZO 1016,7 20 60 0,0
18.07.2017 10:00:00 23,5 17,5 24,1 20,1 16,8 12 7 24 13 OZO 1017,2 20 60 0,0
18.07.2017 09:00:00 21,5 16,7 24,1 20,1 16,8 7 4 13 7 ZO 1017,8 20 60 0,0
18.07.2017 08:00:00 19,1 16,3 18,6 20,3 16,8 3 1 5 3 ZO 1018,2 20 58 0,0
18.07.2017 07:00:00 15,9 14,9 11,3 20,4 16,7 0 0 2 1 ONO 1018,8 14 39 0,0
18.07.2017 06:00:00 13,8 12,9 11,0 20,5 16,7 1 0 3 2 NW 1019,0 11 0 0,0
18.07.2017 05:00:00 14,4 13,3 11,4 20,6 16,8 1 1 4 2 ZW 1018,9 10 0 0,0
18.07.2017 04:00:00 15,5 14,0 12,0 20,6 16,8 2 1 4 2 W 1019,4 20 0 0,0
18.07.2017 03:00:00 15,8 14,2 12,2 20,7 16,8 1 1 3 2 N 1019,8 20 0 0,0
18.07.2017 02:00:00 17,1 14,0 13,6 20,8 16,7 3 1 12 7 ZZW 1019,9 20 0 0,0
18.07.2017 01:00:00 19,2 14,7 16,1 20,8 16,7 5 3 15 8 ONO 1019,9 20 0 0,0
18.07.2017 00:00:00 19,8 14,8 16,8 20,9 16,7 3 2 14 8 OZO 1020,1 20 0 0,0
17.07.2017 23:00:00 20,7 15,3 18,1 20,9 16,8 5 3 16 9 NO 1019,8 20 0 0,0
17.07.2017 22:00:00 21,4 15,9 19,1 20,9 16,8 5 3 22 12 NNO 1019,7 20 0 0,0
17.07.2017 21:00:00 23,1 16,6 21,3 20,8 16,8 6 4 22 12 NO 1019,1 20 17 0,0
17.07.2017 20:00:00 25,0 17,2 24,4 20,7 16,7 14 7 24 13 NO 1018,8 20 50 0,0
17.07.2017 19:00:00 25,1 17,6 24,9 20,6 16,7 8 5 25 14 ONO 1019,0 20 39 0,0
17.07.2017 18:00:00 26,1 17,2 26,7 20,4 16,7 11 6 21 12 NO 1019,2 20 45 0,0
17.07.2017 17:00:00 26,1 16,6 27,7 20,2 16,7 12 6 26 14 ONO 1019,7 20 31 0,0
17.07.2017 16:00:00 25,7 17,1 27,0 20,1 16,7 6 4 19 10 ONO 1019,8 20 6 0,0
17.07.2017 15:00:00 25,5 16,9 27,3 19,9 16,7 5 3 14 8 ONO 1020,4 20 39 0,0
17.07.2017 14:00:00 25,6 16,7 30,0 19,7 16,7 3 2 12 7 O 1020,8 20 40 0,0
17.07.2017 13:00:00 25,4 16,3 30,3 19,6 16,7 5 3 12 6 WNW 1021,0 20 38 0,0
17.07.2017 12:00:00 24,0 16,3 27,3 19,6 16,7 6 4 20 11 NO 1021,3 20 36 0,0
17.07.2017 11:00:00 23,4 17,6 26,3 19,6 16,8 7 4 16 8 OZO 1021,6 20 54 0,0
17.07.2017 10:00:00 22,7 17,4 23,4 19,6 16,7 4 2 12 7 OZO 1021,8 20 53 0,0
17.07.2017 09:00:00 20,2 16,6 24,0 19,7 16,7 2 1 7 4 ZZO 1022,2 20 60 0,0
17.07.2017 08:00:00 17,1 15,8 14,2 19,8 16,7 1 0 3 1 NNW 1022,4 16 53 0,0
17.07.2017 07:00:00 13,2 12,9 10,1 19,9 16,7 1 0 7 4 N 1022,5 7 12 0,0
17.07.2017 06:00:00 12,6 12,3 10,1 20,0 16,7 3 1 9 5 NNW 1022,3 1,1 0 0,0
17.07.2017 05:00:00 13,2 12,9 10,3 20,1 16,7 4 2 8 4 NW 1022,3 5 0 0,0
17.07.2017 04:00:00 13,2 12,9 9,8 20,2 16,8 2 1 4 2 WNW 1022,4 8 0 0,0
17.07.2017 03:00:00 13,5 13,0 9,8 20,3 16,7 1 1 4 2 W 1022,5 20 0 0,0
17.07.2017 02:00:00 14,1 13,5 11,1 20,4 16,7 1 0 8 5 W 1022,7 3,4 0 0,0
17.07.2017 01:00:00 14,9 13,9 11,4 20,5 16,7 1 1 4 2 W 1022,7 3,6 0 0,0
17.07.2017 00:00:00 15,8 14,0 12,8 20,5 16,7 3 1 5 3 WNW 1022,9 4,8 0 0,0
16.07.2017 23:00:00 18,1 15,0 15,0 20,5 16,7 2 1 12 7 NO 1022,6 20 0 0,0
16.07.2017 22:00:00 21,2 16,2 18,4 20,5 16,7 5 3 18 10 WNW 1022,3 20 9 0,0
16.07.2017 21:00:00 23,3 16,8 22,4 20,4 16,7 14 7 26 14 NNW 1021,8 20 60 0,0
16.07.2017 20:00:00 26,0 17,4 24,4 20,3 16,7 12 7 24 13 NW 1021,3 20 38 0,0
16.07.2017 19:00:00 25,7 16,0 24,4 20,2 16,8 9 5 19 10 WNW 1021,5 20 26 0,0
16.07.2017 18:00:00 26,3 16,8 25,0 20,1 16,7 11 6 25 13 WNW 1021,8 20 37 0,0
16.07.2017 17:00:00 26,6 17,4 27,7 19,9 16,8 11 6 26 14 WNW 1022,5 20 32 0,0
16.07.2017 16:00:00 26,1 17,2 28,5 19,8 16,7 14 7 24 13 WNW 1022,8 20 33 0,0
16.07.2017 15:00:00 24,4 16,9 27,2 19,6 16,7 10 5 16 8 W 1023,1 20 10 0,0
16.07.2017 14:00:00 23,8 17,3 28,2 19,5 16,7 8 5 19 10 WNW 1023,3 20 31 0,0
16.07.2017 13:00:00 22,6 17,1 27,9 19,5 16,7 4 2 13 7 NNW 1023,9 19 32 0,0
16.07.2017 12:00:00 20,9 15,7 25,6 19,5 16,7 4 2 11 6 W 1024,2 20 11 0,0
16.07.2017 11:00:00 19,1 14,4 20,8 19,5 16,7 5 3 14 7 W 1024,5 20 0 0,0
16.07.2017 10:00:00 17,9 13,2 18,8 19,5 16,7 7 4 13 7 W 1024,6 20 0 0,0
16.07.2017 09:00:00 17,5 13,0 17,5 19,6 16,8 3 2 7 4 W 1024,5 20 0 0,0
16.07.2017 08:00:00 17,1 13,0 16,6 19,6 16,7 2 1 6 3 ZW 1024,2 20 0 0,0
16.07.2017 07:00:00 16,9 12,8 16,3 19,7 16,7 3 2 6 3 WNW 1024,0 20 0 0,0
16.07.2017 06:00:00 17,0 13,1 16,3 19,7 16,7 4 2 9 5 W 1023,6 20 0 0,0
16.07.2017 05:00:00 17,0 12,9 16,4 19,8 16,7 6 3 13 7 WNW 1023,8 20 0 0,0
16.07.2017 04:00:00 17,3 13,2 16,5 19,8 16,7 3 2 8 5 W 1023,7 20 0 0,0
16.07.2017 03:00:00 17,1 14,0 16,5 19,8 16,7 1 1 11 6 OZO 1023,6 20 0 0,0
16.07.2017 02:00:00 18,1 13,0 16,9 19,9 16,7 6 4 16 8 W 1023,9 20 0 0,0
16.07.2017 01:00:00 17,7 14,0 16,8 19,9 16,7 3 1 6 4 WZW 1023,8 20 0 0,0
16.07.2017 00:00:00 18,1 14,0 16,9 19,9 16,7 3 2 11 6 W 1023,9 20 0 0,0
15.07.2017 23:00:00 17,8 14,3 17,0 19,9 16,7 1 1 4 2 OZO 1023,7 20 0 0,0
15.07.2017 22:00:00 18,1 14,4 17,5 19,8 16,7 3 1 6 3 O 1023,4 20 13 0,0
15.07.2017 21:00:00 20,0 14,1 19,8 19,8 16,7 3 2 9 5 Z 1022,8 20 10 0,0
15.07.2017 20:00:00 20,9 12,6 21,0 19,7 16,7 5 3 10 6 Z 1022,8 20 0 0,0
15.07.2017 19:00:00 21,6 11,3 22,4 19,6 16,7 5 3 13 7 WZW 1022,9 20 0 0,0
15.07.2017 18:00:00 21,8 10,3 23,3 19,5 16,7 6 3 18 10 W 1023,2 20 8 0,0
15.07.2017 17:00:00 18,5 8,2 23,8 19,3 16,7 9 5 17 9 W 1023,8 20 0 0,0
15.07.2017 16:00:00 21,5 10,6 26,0 19,2 16,7 6 3 19 11 WZW 1023,5 20 10 0,0
15.07.2017 15:00:00 21,1 9,7 25,6 19,1 16,7 10 6 28 15 W 1023,7 20 26 0,0
15.07.2017 14:00:00 21,6 11,0 27,7 19,0 16,7 4 2 21 12 WZW 1023,6 20 25 0,0
15.07.2017 13:00:00 20,6 11,0 24,1 18,9 16,7 7 4 21 12 W 1023,9 20 30 0,0
15.07.2017 12:00:00 19,2 10,2 26,4 18,9 16,7 9 5 19 10 W 1024,1 20 43 0,0
15.07.2017 11:00:00 18,7 12,2 23,0 18,9 16,7 7 4 16 9 W 1024,0 20 50 0,0
15.07.2017 10:00:00 16,4 12,2 19,8 19,0 16,7 4 2 8 5 NW 1024,2 20 12 0,0
15.07.2017 09:00:00 14,8 11,9 15,7 19,0 16,7 3 1 7 4 NO 1024,2 20 26 0,0
15.07.2017 08:00:00 11,9 10,8 11,2 19,1 16,7 3 2 6 3 W 1024,2 20 23 0,0
15.07.2017 07:00:00 10,3 9,7 9,7 19,3 16,7 4 2 6 3 NW 1023,9 18 15 0,0
15.07.2017 06:00:00 9,5 9,4 6,7 19,4 16,7 3 1 5 3 WNW 1023,4 15 0 0,0

tt = temperatuur
td = dauwpunt
tt 5cm = temperatuur 5cm
tt -20cm = temperatuur -20cm
tt -100cm = temperatuur -100cm
ff = windsnelheid
fx = windstoten
dd = windrichting
ppp = luchtdruk
vv = zicht
sd = Zonneschijnduur
rr = neerslag

Weerstations in de omgeving